Regional Weather Roundup
Issued by NWS

Home | Current Version | Previous Version | Graphics & Text | Print | Product List | Glossary On
Versions: 1 2 3 4 5 6 7 8 9 10 11 12 13 14 15 16 17 18 19 20 21 22 23 24 25 26 27 28 29 30 31 32 33 34 35 36 37 38 39 40 41 42 43 44 45 46 47 48 49 50
727
ASUS43 KDMX 210706
RWRIA

WEATHER ROUNDUP FOR IOWA
NATIONAL WEATHER SERVICE DES MOINES IA
200 AM CDT SAT OCT 21 2017

NOTE: "FAIR" INDICATES FEW OR NO CLOUDS BELOW 12,000 FEET WITH NO
SIGNIFICANT WEATHER AND/OR OBSTRUCTIONS TO VISIBILITY.

* - THESE STATIONS ARE NOT NWS STATIONS...THUS NOT UNDER NWS
QUALITY CONTROL.  THEY ALSO DO NOT REPORT WEATHER SUCH
AS PRECIPITATION OR FOG.

IAZ001>003-012>014-020>022-031>034-043>046-210800-
   NORTHWEST IOWA

CITY           SKY/WX    TMP DP  RH WIND       PRES   REMARKS
CHEROKEE *     CLOUDY    64  57  80 S16G23    29.65F
DENISON *      PTCLDY    63  57  82 S20G28    29.69F
LE MARS *      CLOUDY    66  57  72 S21G29    29.60F
ORANGE CITY *  CLOUDY    66  61  82 S24G32    29.61F
SHELDON *      CLOUDY    64  57  77 S16G24    29.60F
SIOUX CITY     CLOUDY    66  59  78 S17G29    29.60F
SPENCER        PTCLDY    64  56  75 S20G28    29.66F
STORM LAKE *   CLOUDY    63  55  77 S23G31    29.67S
$$

IAZ055>058-069>071-079>083-090>094-210800-
   SOUTHWEST IOWA

CITY           SKY/WX    TMP DP  RH WIND       PRES   REMARKS
ATLANTIC *     CLOUDY    64  55  72 S14G22    29.72F
AUDUBON *      MOCLDY    63  55  77 S15G22    29.73F
CLARINDA *     CLOUDY    66  57  72 S15G25    29.77F
COUNCIL BLFS * CLOUDY    63  61  94 S17G25    29.68F
CRESTON *      CLOUDY    63  55  77 S16G25    29.80F
HARLAN  *      CLEAR     63  57  82 S14G21    29.73F
LAMONI         LGT RAIN  63  55  75 S13G23    29.83F
RED OAK *      CLOUDY    66  57  72 S17G24    29.72F
SHENANDOAH *   CLOUDY    66  57  72 S16G30    29.72F
$$

IAZ047>049-059>061-072>074-084-210800-
   CENTRAL IOWA

CITY           SKY/WX    TMP DP  RH WIND       PRES   REMARKS
AMES           CLOUDY    62  55  77 S15       29.79F
ANKENY *       CLOUDY    63  54  72 S14G21    29.81F
BOONE *        CLOUDY    61  54  77 S15       29.77F
CHARITON *     PTCLDY    63  55  77 S20G28    29.84F
DES MOINES     CLOUDY    63  54  72 S14       29.80F
GRINNELL*      CLEAR     60  51  72 SE13      29.88F
KNOXVILLE *    CLOUDY    63  54  72 S15       29.84S
MARSHALLTOWN   CLEAR     61  51  70 SE16      29.83F
NEWTON *       PTCLDY    59  52  77 S12       29.85F
PELLA *        PTCLDY    62  53  70 S12G18    29.87F
PERRY *          N/A     64  53  67 S14G22    29.76F
$$

IAZ004>006-015-016-023>025-035-036-210800-
   NORTH CENTRAL IOWA

CITY           SKY/WX    TMP DP  RH WIND       PRES   REMARKS
ALGONA *       CLOUDY    63  55  77 S18G29    29.72S
CLARION *      PTCLDY    61  54  77 S23G29    29.75F
ESTHERVILLE    CLOUDY    59  56  89 S15       29.68F
FORT DODGE *   CLOUDY    63  54  72 S16G25    29.74F
MASON CITY     PTCLDY    60  51  72 S17       29.79F
FOREST CITY *    N/A     61  52  72 S18G25    29.76F
WEBSTER CITY * PTCLDY    61  52  72 SE13G20   29.74F
IOWA FALLS *     N/A     59  52  78 SE16      29.82S
$$

IAZ007>011-017>019-026>030-037>042-050>054-066-210800-
   NORTHEAST IOWA

CITY           SKY/WX    TMP DP  RH WIND       PRES   REMARKS
CEDAR RAPIDS   PTCLDY    62  50  64 S14G24    29.91S
CHARLES CITY * MOCLDY    61  50  67 S14G21    29.83F
CLINTON *      CLOUDY    65  51  60 S13       29.98S
DECORAH *      MOCLDY    63  50  63 S16G23    29.86F
DUBUQUE        PTCLDY    62  49  62 S14G22    29.95S
MONTICELLO *   PTCLDY    63  50  63 S12       29.93S
OELWEIN *      CLOUDY    63  52  67 S16       29.88F
WATERLOO       CLOUDY    62  49  62 S17       29.84F
$$

IAZ064-065-067-068-078-210800-
   EAST CENTRAL IOWA

CITY           SKY/WX    TMP DP  RH WIND       PRES   REMARKS
DAVENPORT      MOCLDY    65  50  58 S17G23    29.98S
IOWA CITY      CLOUDY    64  51  62 SE10      29.94S
MUSCATINE *    MOCLDY    63  50  63 S8        29.96S
QUAD CITIES    MOCLDY    66  50  56 S12       29.97S
$$

IAZ062-063-075>077-085>089-095>099-210800-
   SOUTHEAST IOWA

CITY           SKY/WX    TMP DP  RH WIND       PRES   REMARKS
BURLINGTON     PTCLDY    63  52  67 S12       29.97R
FAIRFIELD *    MOCLDY    63  50  63 S17       29.91F
FORT MADISON * PTCLDY    63  52  67 S8        29.98R
KEOKUK *       CLOUDY    64  52  63 S10       29.96S
OSKALOOSA *      N/A     60  53  76 S13G21    29.89S
OTTUMWA        PTCLDY    63  53  70 S14       29.89S
WASHINGTON *   CLEAR     63  52  67 S14       29.94S
$$

ABBREVIATIONS USED IN REMARKS
   TC - TEMPERATURES IN CELSIUS
  WCI - WIND CHILL INDEX
   HX - HEAT INDEX
  VSB - VISIBILITY
$$





USA.gov is the U.S. government's official web portal to all federal, state and local government web resources and services.